Year,Month,Day,Hour,Minute,Value (Times are PST for temperature in C)
2014,10,25,00,00,7.90
2014,10,25,00,01,7.90
2014,10,25,00,02,7.90
2014,10,25,00,03,7.90
2014,10,25,00,04,7.90
2014,10,25,00,05,7.90
2014,10,25,00,06,7.90
2014,10,25,00,07,7.80
2014,10,25,00,08,7.80
2014,10,25,00,09,7.80
2014,10,25,00,10,7.80
2014,10,25,00,11,7.80
2014,10,25,00,12,7.80
2014,10,25,00,13,7.80
2014,10,25,00,14,7.80
2014,10,25,00,15,7.80
2014,10,25,00,16,7.80
2014,10,25,00,17,7.80
2014,10,25,00,18,7.80
2014,10,25,00,19,7.80
2014,10,25,00,20,7.80
2014,10,25,00,21,7.70
2014,10,25,00,22,7.70
2014,10,25,00,23,7.70
2014,10,25,00,24,7.70
2014,10,25,00,25,7.70
2014,10,25,00,26,7.70
2014,10,25,00,27,7.80
2014,10,25,00,28,7.80
2014,10,25,00,29,7.80
2014,10,25,00,30,7.80
2014,10,25,00,31,7.80
2014,10,25,00,32,7.80
2014,10,25,00,33,7.90
2014,10,25,00,34,7.90
2014,10,25,00,35,7.90
2014,10,25,00,36,8.00
2014,10,25,00,37,8.00
2014,10,25,00,38,8.00
2014,10,25,00,39,8.10
2014,10,25,00,40,8.10
2014,10,25,00,41,8.10
2014,10,25,00,42,8.10
2014,10,25,00,43,8.20
2014,10,25,00,44,8.20
2014,10,25,00,45,8.20
2014,10,25,00,46,8.30
2014,10,25,00,47,8.30
2014,10,25,00,48,8.30
2014,10,25,00,49,8.30
2014,10,25,00,50,8.40
2014,10,25,00,51,8.40
2014,10,25,00,52,8.40
2014,10,25,00,53,8.40
2014,10,25,00,54,8.40
2014,10,25,00,55,8.40
2014,10,25,00,56,8.40
2014,10,25,00,57,8.40
2014,10,25,00,58,8.40
2014,10,25,00,59,8.40
2014,10,25,01,00,8.40
2014,10,25,01,01,8.40
2014,10,25,01,02,8.40
2014,10,25,01,03,8.40
2014,10,25,01,04,8.40
2014,10,25,01,05,8.40
2014,10,25,01,06,8.40
2014,10,25,01,07,8.40
2014,10,25,01,08,8.40
2014,10,25,01,09,8.40
2014,10,25,01,10,8.40
2014,10,25,01,11,8.40
2014,10,25,01,12,8.40
2014,10,25,01,13,8.40
2014,10,25,01,14,8.40
2014,10,25,01,15,8.40
2014,10,25,01,16,8.40
2014,10,25,01,17,8.40
2014,10,25,01,18,8.40
2014,10,25,01,19,8.40
2014,10,25,01,20,8.40
2014,10,25,01,21,8.40
2014,10,25,01,22,8.40
2014,10,25,01,23,8.40
2014,10,25,01,24,8.40
2014,10,25,01,25,8.40
2014,10,25,01,26,8.40
2014,10,25,01,27,8.40
2014,10,25,01,28,8.40
2014,10,25,01,29,8.40
2014,10,25,01,30,8.40
2014,10,25,01,31,8.40
2014,10,25,01,32,8.40
2014,10,25,01,33,8.40
2014,10,25,01,34,8.40
2014,10,25,01,35,8.40
2014,10,25,01,36,8.30
2014,10,25,01,37,8.30
2014,10,25,01,38,8.30
2014,10,25,01,39,8.30
2014,10,25,01,40,8.30
2014,10,25,01,41,8.30
2014,10,25,01,42,8.30
2014,10,25,01,43,8.30
2014,10,25,01,44,8.30
2014,10,25,01,45,8.30
2014,10,25,01,46,8.30
2014,10,25,01,47,8.40
2014,10,25,01,48,8.40
2014,10,25,01,49,8.30
2014,10,25,01,50,8.30
2014,10,25,01,51,8.30
2014,10,25,01,52,8.30
2014,10,25,01,53,8.30
2014,10,25,01,54,8.30
2014,10,25,01,55,8.30
2014,10,25,01,56,8.30
2014,10,25,01,57,8.30
2014,10,25,01,58,8.30
2014,10,25,01,59,8.30
2014,10,25,02,00,8.30
2014,10,25,02,01,8.30
2014,10,25,02,02,8.30
2014,10,25,02,03,8.30
2014,10,25,02,04,8.30
2014,10,25,02,05,8.30
2014,10,25,02,06,8.30
2014,10,25,02,07,8.30
2014,10,25,02,08,8.30
2014,10,25,02,09,8.30
2014,10,25,02,10,8.30
2014,10,25,02,11,8.40
2014,10,25,02,12,8.40
2014,10,25,02,13,8.50
2014,10,25,02,14,8.60
2014,10,25,02,15,8.60
2014,10,25,02,16,8.60
2014,10,25,02,17,8.70
2014,10,25,02,18,8.70
2014,10,25,02,19,8.70
2014,10,25,02,20,8.70
2014,10,25,02,21,8.70
2014,10,25,02,22,8.70
2014,10,25,02,23,8.80
2014,10,25,02,24,8.80
2014,10,25,02,25,8.80
2014,10,25,02,26,8.80
2014,10,25,02,27,8.80
2014,10,25,02,28,8.80
2014,10,25,02,29,8.80
2014,10,25,02,30,8.80
2014,10,25,02,31,8.80
2014,10,25,02,32,8.80
2014,10,25,02,33,8.80
2014,10,25,02,34,8.80
2014,10,25,02,35,8.70
2014,10,25,02,36,8.70
2014,10,25,02,37,8.70
2014,10,25,02,38,8.70
2014,10,25,02,39,8.60
2014,10,25,02,40,8.60
2014,10,25,02,41,8.60
2014,10,25,02,42,8.60
2014,10,25,02,43,8.60
2014,10,25,02,44,8.50
2014,10,25,02,45,8.50
2014,10,25,02,46,8.50
2014,10,25,02,47,8.50
2014,10,25,02,48,8.50
2014,10,25,02,49,8.50
2014,10,25,02,50,8.40
2014,10,25,02,51,8.40
2014,10,25,02,52,8.40
2014,10,25,02,53,8.40
2014,10,25,02,54,8.40
2014,10,25,02,55,8.40
2014,10,25,02,56,8.40
2014,10,25,02,57,8.40
2014,10,25,02,58,8.40
2014,10,25,02,59,8.30
2014,10,25,03,00,8.30
2014,10,25,03,01,8.30
2014,10,25,03,02,8.30
2014,10,25,03,03,8.30
2014,10,25,03,04,8.30
2014,10,25,03,05,8.30
2014,10,25,03,06,8.30
2014,10,25,03,07,8.30
2014,10,25,03,08,8.30
2014,10,25,03,09,8.30
2014,10,25,03,10,8.30
2014,10,25,03,11,8.30
2014,10,25,03,12,8.40
2014,10,25,03,13,8.40
2014,10,25,03,14,8.40
2014,10,25,03,15,8.40
2014,10,25,03,16,8.40
2014,10,25,03,17,8.40
2014,10,25,03,18,8.40
2014,10,25,03,19,8.40
2014,10,25,03,20,8.40
2014,10,25,03,21,8.50
2014,10,25,03,22,8.50
2014,10,25,03,23,8.50
2014,10,25,03,24,8.60
2014,10,25,03,25,8.70
2014,10,25,03,26,8.70
2014,10,25,03,27,8.80
2014,10,25,03,28,8.90
2014,10,25,03,29,9.00
2014,10,25,03,30,9.00
2014,10,25,03,31,9.10
2014,10,25,03,32,9.20
2014,10,25,03,33,9.20
2014,10,25,03,34,9.30
2014,10,25,03,35,9.30
2014,10,25,03,36,9.30
2014,10,25,03,37,9.40
2014,10,25,03,38,9.40
2014,10,25,03,39,9.40
2014,10,25,03,40,9.40
2014,10,25,03,41,9.40
2014,10,25,03,42,9.40
2014,10,25,03,43,9.40
2014,10,25,03,44,9.40
2014,10,25,03,45,9.40
2014,10,25,03,46,9.40
2014,10,25,03,47,9.50
2014,10,25,03,48,9.50
2014,10,25,03,49,9.60
2014,10,25,03,50,9.60
2014,10,25,03,51,9.60
2014,10,25,03,52,9.60
2014,10,25,03,53,9.60
2014,10,25,03,54,9.60
2014,10,25,03,55,9.70
2014,10,25,03,56,9.70
2014,10,25,03,57,9.70
2014,10,25,03,58,9.70
2014,10,25,03,59,9.80
2014,10,25,04,00,9.80
2014,10,25,04,01,9.80
2014,10,25,04,02,9.80
2014,10,25,04,03,9.80
2014,10,25,04,04,9.80
2014,10,25,04,05,9.80
2014,10,25,04,06,9.80
2014,10,25,04,07,9.80
2014,10,25,04,08,9.70
2014,10,25,04,09,9.70
2014,10,25,04,10,9.70
2014,10,25,04,11,9.70
2014,10,25,04,12,9.70
2014,10,25,04,13,9.70
2014,10,25,04,14,9.70
2014,10,25,04,15,9.70
2014,10,25,04,16,9.60
2014,10,25,04,17,9.60
2014,10,25,04,18,9.50
2014,10,25,04,19,9.50
2014,10,25,04,20,9.50
2014,10,25,04,21,9.50
2014,10,25,04,22,9.50
2014,10,25,04,23,9.50
2014,10,25,04,24,9.50
2014,10,25,04,25,9.50
2014,10,25,04,26,9.50
2014,10,25,04,27,9.50
2014,10,25,04,28,9.50
2014,10,25,04,29,9.50
2014,10,25,04,30,9.60
2014,10,25,04,31,9.60
2014,10,25,04,32,9.60
2014,10,25,04,33,9.60
2014,10,25,04,34,9.60
2014,10,25,04,35,9.60
2014,10,25,04,36,9.60
2014,10,25,04,37,9.60
2014,10,25,04,38,9.50
2014,10,25,04,39,9.50
2014,10,25,04,40,9.50
2014,10,25,04,41,9.50
2014,10,25,04,42,9.50
2014,10,25,04,43,9.50
2014,10,25,04,44,9.50
2014,10,25,04,45,9.50
2014,10,25,04,46,9.50
2014,10,25,04,47,9.50
2014,10,25,04,48,9.50
2014,10,25,04,49,9.50
2014,10,25,04,50,9.60
2014,10,25,04,51,9.60
2014,10,25,04,52,9.60
2014,10,25,04,53,9.70
2014,10,25,04,54,9.70
2014,10,25,04,55,9.70
2014,10,25,04,56,9.80
2014,10,25,04,57,9.80
2014,10,25,04,58,9.80
2014,10,25,04,59,9.80
2014,10,25,05,00,9.80
2014,10,25,05,01,9.80
2014,10,25,05,02,9.80
2014,10,25,05,03,9.80
2014,10,25,05,04,9.80
2014,10,25,05,05,9.80
2014,10,25,05,06,9.90
2014,10,25,05,07,9.90
2014,10,25,05,08,9.90
2014,10,25,05,09,9.90
2014,10,25,05,10,9.90
2014,10,25,05,11,9.90
2014,10,25,05,12,9.90
2014,10,25,05,13,9.90
2014,10,25,05,14,9.80
2014,10,25,05,15,9.80
2014,10,25,05,16,9.80
2014,10,25,05,17,9.80
2014,10,25,05,18,9.80
2014,10,25,05,19,9.80
2014,10,25,05,20,9.80
2014,10,25,05,21,9.80
2014,10,25,05,22,9.80
2014,10,25,05,23,9.90
2014,10,25,05,24,9.90
2014,10,25,05,25,10.00
2014,10,25,05,26,10.00
2014,10,25,05,27,10.10
2014,10,25,05,28,10.10
2014,10,25,05,29,10.10
2014,10,25,05,30,10.20
2014,10,25,05,31,10.20
2014,10,25,05,32,10.20
2014,10,25,05,33,10.10
2014,10,25,05,34,10.10
2014,10,25,05,35,10.10
2014,10,25,05,36,10.10
2014,10,25,05,37,10.10
2014,10,25,05,38,10.00
2014,10,25,05,39,10.00
2014,10,25,05,40,10.00
2014,10,25,05,41,9.90
2014,10,25,05,42,9.90
2014,10,25,05,43,9.90
2014,10,25,05,44,9.90
2014,10,25,05,45,9.90
2014,10,25,05,46,9.90
2014,10,25,05,47,9.90
2014,10,25,05,48,9.90
2014,10,25,05,49,9.90
2014,10,25,05,50,9.90
2014,10,25,05,51,9.80
2014,10,25,05,52,9.80
2014,10,25,05,53,9.80
2014,10,25,05,54,9.90
2014,10,25,05,55,9.90
2014,10,25,05,56,10.00
2014,10,25,05,57,10.00
2014,10,25,05,58,10.00
2014,10,25,05,59,10.00
2014,10,25,06,00,10.00
2014,10,25,06,01,10.00
2014,10,25,06,02,10.00
2014,10,25,06,03,10.00
2014,10,25,06,04,10.10
2014,10,25,06,05,10.10
2014,10,25,06,06,10.10
2014,10,25,06,07,10.20
2014,10,25,06,08,10.20
2014,10,25,06,09,10.20
2014,10,25,06,10,10.20
2014,10,25,06,11,10.30
2014,10,25,06,12,10.30
2014,10,25,06,13,10.30
2014,10,25,06,14,10.30
2014,10,25,06,15,10.30
2014,10,25,06,16,10.30
2014,10,25,06,17,10.30
2014,10,25,06,18,10.20
2014,10,25,06,19,10.20
2014,10,25,06,20,10.20
2014,10,25,06,21,10.20
2014,10,25,06,22,10.20
2014,10,25,06,23,10.20
2014,10,25,06,24,10.20
2014,10,25,06,25,10.20
2014,10,25,06,26,10.20
2014,10,25,06,27,10.20
2014,10,25,06,28,10.20
2014,10,25,06,29,10.20
2014,10,25,06,30,10.20
2014,10,25,06,31,10.20
2014,10,25,06,32,10.20
2014,10,25,06,33,10.20
2014,10,25,06,34,10.20
2014,10,25,06,35,10.20
2014,10,25,06,36,10.20
2014,10,25,06,37,10.20
2014,10,25,06,38,10.20
2014,10,25,06,39,10.20
2014,10,25,06,40,10.20
2014,10,25,06,41,10.20
2014,10,25,06,42,10.20
2014,10,25,06,43,10.20
2014,10,25,06,44,10.20
2014,10,25,06,45,10.20
2014,10,25,06,46,10.20
2014,10,25,06,47,10.20
2014,10,25,06,48,10.20
2014,10,25,06,49,10.30
2014,10,25,06,50,10.20
2014,10,25,06,51,10.20
2014,10,25,06,52,10.20
2014,10,25,06,53,10.20
2014,10,25,06,54,10.20
2014,10,25,06,55,10.20
2014,10,25,06,56,10.20
2014,10,25,06,57,10.20
2014,10,25,06,58,10.20
2014,10,25,06,59,10.20
2014,10,25,07,00,10.20
2014,10,25,07,01,10.20
2014,10,25,07,02,10.20
2014,10,25,07,03,10.20
2014,10,25,07,04,10.20
2014,10,25,07,05,10.20
2014,10,25,07,06,10.20
2014,10,25,07,07,10.20
2014,10,25,07,08,10.30
2014,10,25,07,09,10.30
2014,10,25,07,10,10.30
2014,10,25,07,11,10.30
2014,10,25,07,12,10.30
2014,10,25,07,13,10.30
2014,10,25,07,14,10.30
2014,10,25,07,15,10.30
2014,10,25,07,16,10.30
2014,10,25,07,17,10.30
2014,10,25,07,18,10.30
2014,10,25,07,19,10.30
2014,10,25,07,20,10.30
2014,10,25,07,21,10.30
2014,10,25,07,22,10.30
2014,10,25,07,23,10.30
2014,10,25,07,24,10.30
2014,10,25,07,25,10.30
2014,10,25,07,26,10.30
2014,10,25,07,27,10.30
2014,10,25,07,28,10.30
2014,10,25,07,29,10.20
2014,10,25,07,30,10.20
2014,10,25,07,31,10.20
2014,10,25,07,32,10.20
2014,10,25,07,33,10.20
2014,10,25,07,34,10.20
2014,10,25,07,35,10.20
2014,10,25,07,36,10.20
2014,10,25,07,37,10.20
2014,10,25,07,38,10.20
2014,10,25,07,39,10.20
2014,10,25,07,40,10.20
2014,10,25,07,41,10.20
2014,10,25,07,42,10.20
2014,10,25,07,43,10.20
2014,10,25,07,44,10.20
2014,10,25,07,45,10.20
2014,10,25,07,46,10.20
2014,10,25,07,47,10.20
2014,10,25,07,48,10.20
2014,10,25,07,49,10.20
2014,10,25,07,50,10.10
2014,10,25,07,51,10.10
2014,10,25,07,52,10.10
2014,10,25,07,53,10.10
2014,10,25,07,54,10.00
2014,10,25,07,55,10.00
2014,10,25,07,56,10.00
2014,10,25,07,57,10.00
2014,10,25,07,58,9.90
2014,10,25,07,59,9.90
2014,10,25,08,00,9.90
2014,10,25,08,01,9.90
2014,10,25,08,02,9.80
2014,10,25,08,03,9.80
2014,10,25,08,04,9.80
2014,10,25,08,05,9.80
2014,10,25,08,06,9.80
2014,10,25,08,07,9.80
2014,10,25,08,08,9.80
2014,10,25,08,09,9.70
2014,10,25,08,10,9.70
2014,10,25,08,11,9.70
2014,10,25,08,12,9.70
2014,10,25,08,13,9.60
2014,10,25,08,14,9.60
2014,10,25,08,15,9.60
2014,10,25,08,16,9.60
2014,10,25,08,17,9.60
2014,10,25,08,18,9.60
2014,10,25,08,19,9.60
2014,10,25,08,20,9.60
2014,10,25,08,21,9.50
2014,10,25,08,22,9.40
2014,10,25,08,23,9.40
2014,10,25,08,24,9.40
2014,10,25,08,25,9.40
2014,10,25,08,26,9.30
2014,10,25,08,27,9.30
2014,10,25,08,28,9.30
2014,10,25,08,29,9.20
2014,10,25,08,30,9.20
2014,10,25,08,31,9.20
2014,10,25,08,32,9.20
2014,10,25,08,33,9.20
2014,10,25,08,34,9.10
2014,10,25,08,35,9.10
2014,10,25,08,36,9.10
2014,10,25,08,37,9.10
2014,10,25,08,38,9.10
2014,10,25,08,39,9.00
2014,10,25,08,40,9.00
2014,10,25,08,41,8.90
2014,10,25,08,42,8.90
2014,10,25,08,43,8.90
2014,10,25,08,44,8.90
2014,10,25,08,45,8.90
2014,10,25,08,46,8.90
2014,10,25,08,47,8.80
2014,10,25,08,48,8.80
2014,10,25,08,49,8.80
2014,10,25,08,50,8.80
2014,10,25,08,51,8.80
2014,10,25,08,52,8.70
2014,10,25,08,53,8.70
2014,10,25,08,54,8.70
2014,10,25,08,55,8.70
2014,10,25,08,56,8.70
2014,10,25,08,57,8.60
2014,10,25,08,58,8.60
2014,10,25,08,59,8.60
2014,10,25,09,00,8.60
2014,10,25,09,01,8.60
2014,10,25,09,02,8.60
2014,10,25,09,03,8.60
2014,10,25,09,04,8.60
2014,10,25,09,05,8.50
2014,10,25,09,06,8.50
2014,10,25,09,07,8.50
2014,10,25,09,08,8.40
2014,10,25,09,09,8.40
2014,10,25,09,10,8.40
2014,10,25,09,11,8.40
2014,10,25,09,12,8.40
2014,10,25,09,13,8.40
2014,10,25,09,14,8.30
2014,10,25,09,15,8.30
2014,10,25,09,16,8.30
2014,10,25,09,17,8.30
2014,10,25,09,18,8.30
2014,10,25,09,19,8.30
2014,10,25,09,20,8.20
2014,10,25,09,21,8.20
2014,10,25,09,22,8.20
2014,10,25,09,23,8.20
2014,10,25,09,24,8.20
2014,10,25,09,25,8.10
2014,10,25,09,26,8.10
2014,10,25,09,27,8.10
2014,10,25,09,28,8.10
2014,10,25,09,29,8.10
2014,10,25,09,30,8.10
2014,10,25,09,31,8.10
2014,10,25,09,32,8.00
2014,10,25,09,33,8.00
2014,10,25,09,34,8.00
2014,10,25,09,35,8.00
2014,10,25,09,36,8.00
2014,10,25,09,37,8.00
2014,10,25,09,38,8.00
2014,10,25,09,39,8.00
2014,10,25,09,40,8.00
2014,10,25,09,41,7.90
2014,10,25,09,42,7.90
2014,10,25,09,43,7.90
2014,10,25,09,44,7.90
2014,10,25,09,45,7.80
2014,10,25,09,46,7.90
2014,10,25,09,47,7.90
2014,10,25,09,48,7.90
2014,10,25,09,49,7.90
2014,10,25,09,50,7.90
2014,10,25,09,51,7.80
2014,10,25,09,52,7.80
2014,10,25,09,53,7.80
2014,10,25,09,54,7.80
2014,10,25,09,55,7.80
2014,10,25,09,56,7.80
2014,10,25,09,57,7.80
2014,10,25,09,58,7.90
2014,10,25,09,59,7.90
2014,10,25,10,00,7.90
2014,10,25,10,01,7.90
2014,10,25,10,02,7.90
2014,10,25,10,03,7.90
2014,10,25,10,04,7.90
2014,10,25,10,05,7.90
2014,10,25,10,06,7.80
2014,10,25,10,07,7.80
2014,10,25,10,08,7.80
2014,10,25,10,09,7.80
2014,10,25,10,10,7.80
2014,10,25,10,11,7.80
2014,10,25,10,12,7.80
2014,10,25,10,13,7.70
2014,10,25,10,14,7.70
2014,10,25,10,15,7.70
2014,10,25,10,16,7.70
2014,10,25,10,17,7.70
2014,10,25,10,18,7.70
2014,10,25,10,19,7.60
2014,10,25,10,20,7.60
2014,10,25,10,21,7.60
2014,10,25,10,22,7.60
2014,10,25,10,23,7.50
2014,10,25,10,24,7.50
2014,10,25,10,25,7.50
2014,10,25,10,26,7.50
2014,10,25,10,27,7.50
2014,10,25,10,28,7.50
2014,10,25,10,29,7.50
2014,10,25,10,30,7.50
2014,10,25,10,31,7.50
2014,10,25,10,32,7.50
2014,10,25,10,33,7.50
2014,10,25,10,34,7.50
2014,10,25,10,35,7.50
2014,10,25,10,36,7.50
2014,10,25,10,37,7.50
2014,10,25,10,38,7.50
2014,10,25,10,39,7.40
2014,10,25,10,40,7.40
2014,10,25,10,41,7.40
2014,10,25,10,42,7.40
2014,10,25,10,43,7.40
2014,10,25,10,44,7.30
2014,10,25,10,45,7.30
2014,10,25,10,46,7.30
2014,10,25,10,47,7.20
2014,10,25,10,48,7.20
2014,10,25,10,49,7.20
2014,10,25,10,50,7.20
2014,10,25,10,51,7.20
2014,10,25,10,52,7.20
2014,10,25,10,53,7.10
2014,10,25,10,54,7.10
2014,10,25,10,55,7.00
2014,10,25,10,56,7.00
2014,10,25,10,57,7.00
2014,10,25,10,58,6.90
2014,10,25,10,59,6.90
2014,10,25,11,00,6.90
2014,10,25,11,01,6.90
2014,10,25,11,02,6.90
2014,10,25,11,03,6.80
2014,10,25,11,04,6.80
2014,10,25,11,05,6.80
2014,10,25,11,06,6.80
2014,10,25,11,07,6.80
2014,10,25,11,08,6.80
2014,10,25,11,09,6.80
2014,10,25,11,10,6.80
2014,10,25,11,11,6.70
2014,10,25,11,12,6.70
2014,10,25,11,13,6.70
2014,10,25,11,14,6.70
2014,10,25,11,15,6.70
2014,10,25,11,16,6.70
2014,10,25,11,17,6.70
2014,10,25,11,18,6.70
2014,10,25,11,19,6.70
2014,10,25,11,20,6.60
2014,10,25,11,21,6.60
2014,10,25,11,22,6.60
2014,10,25,11,23,6.60
2014,10,25,11,24,6.60
2014,10,25,11,25,6.60
2014,10,25,11,26,6.60
2014,10,25,11,27,6.60
2014,10,25,11,28,6.60
2014,10,25,11,29,6.60
2014,10,25,11,30,6.60
2014,10,25,11,31,6.50
2014,10,25,11,32,6.50
2014,10,25,11,33,6.50
2014,10,25,11,34,6.50
2014,10,25,11,35,6.40
2014,10,25,11,36,6.40
2014,10,25,11,37,6.40
2014,10,25,11,38,6.40
2014,10,25,11,39,6.40
2014,10,25,11,40,6.40
2014,10,25,11,41,6.40
2014,10,25,11,42,6.40
2014,10,25,11,43,6.40
2014,10,25,11,44,6.40
2014,10,25,11,45,6.40
2014,10,25,11,46,6.40
2014,10,25,11,47,6.40
2014,10,25,11,48,6.40
2014,10,25,11,49,6.40
2014,10,25,11,50,6.40
2014,10,25,11,51,6.40
2014,10,25,11,52,6.30
2014,10,25,11,53,6.30
2014,10,25,11,54,6.30
2014,10,25,11,55,6.30
2014,10,25,11,56,6.30
2014,10,25,11,57,6.30
2014,10,25,11,58,6.30
2014,10,25,11,59,6.30
2014,10,25,12,00,6.30
2014,10,25,12,01,6.30
2014,10,25,12,02,6.30
2014,10,25,12,03,6.30
2014,10,25,12,04,6.30
2014,10,25,12,05,6.30
2014,10,25,12,06,6.30
2014,10,25,12,07,6.30
2014,10,25,12,08,6.30
2014,10,25,12,09,6.30
2014,10,25,12,10,6.30
2014,10,25,12,11,6.30
2014,10,25,12,12,6.30
2014,10,25,12,13,6.30
2014,10,25,12,14,6.30
2014,10,25,12,15,6.30
2014,10,25,12,16,6.20
2014,10,25,12,17,6.20
2014,10,25,12,18,6.20
2014,10,25,12,19,6.20
2014,10,25,12,20,6.20
2014,10,25,12,21,6.20
2014,10,25,12,22,6.10
2014,10,25,12,23,6.10
2014,10,25,12,24,6.10
2014,10,25,12,25,6.10
2014,10,25,12,26,6.00
2014,10,25,12,27,6.00
2014,10,25,12,28,5.90
2014,10,25,12,29,5.90
2014,10,25,12,30,5.90
2014,10,25,12,31,5.90
2014,10,25,12,32,5.90
2014,10,25,12,33,5.90
2014,10,25,12,34,5.90
2014,10,25,12,35,5.90
2014,10,25,12,36,5.90
2014,10,25,12,37,5.90
2014,10,25,12,38,5.90
2014,10,25,12,39,5.90
2014,10,25,12,40,5.90
2014,10,25,12,41,5.90
2014,10,25,12,42,5.90
2014,10,25,12,43,5.90
2014,10,25,12,44,5.90
2014,10,25,12,45,5.90
2014,10,25,12,46,5.90
2014,10,25,12,47,5.90
2014,10,25,12,48,5.90
2014,10,25,12,49,5.90
2014,10,25,12,50,5.90
2014,10,25,12,51,5.90
2014,10,25,12,52,5.90
2014,10,25,12,53,5.90
2014,10,25,12,54,5.90
2014,10,25,12,55,5.90
2014,10,25,12,56,5.90
2014,10,25,12,57,5.90
2014,10,25,12,58,5.90
2014,10,25,12,59,5.90
2014,10,25,13,00,6.00
2014,10,25,13,01,6.00
2014,10,25,13,02,5.90
2014,10,25,13,03,5.90
2014,10,25,13,04,5.90
2014,10,25,13,05,5.90
2014,10,25,13,06,5.90
2014,10,25,13,07,5.90
2014,10,25,13,08,5.90
2014,10,25,13,09,5.90
2014,10,25,13,10,5.90
2014,10,25,13,11,5.90
2014,10,25,13,12,5.90
2014,10,25,13,13,5.90
2014,10,25,13,14,5.90
2014,10,25,13,15,5.90
2014,10,25,13,16,5.90
2014,10,25,13,17,5.90
2014,10,25,13,18,5.90
2014,10,25,13,19,5.90
2014,10,25,13,20,5.90
2014,10,25,13,21,5.90
2014,10,25,13,22,5.90
2014,10,25,13,23,5.90
2014,10,25,13,24,5.90
2014,10,25,13,25,5.90
2014,10,25,13,26,5.90
2014,10,25,13,27,5.90
2014,10,25,13,28,5.90
2014,10,25,13,29,5.90
2014,10,25,13,30,5.90
2014,10,25,13,31,5.90
2014,10,25,13,32,5.90
2014,10,25,13,33,5.90
2014,10,25,13,34,5.90
2014,10,25,13,35,5.90
2014,10,25,13,36,5.90
2014,10,25,13,37,5.90
2014,10,25,13,38,5.90
2014,10,25,13,39,5.90
2014,10,25,13,40,5.90
2014,10,25,13,41,6.00
2014,10,25,13,42,6.00
2014,10,25,13,43,5.90
2014,10,25,13,44,6.00
2014,10,25,13,45,5.90
2014,10,25,13,46,5.90
2014,10,25,13,47,5.90
2014,10,25,13,48,5.90
2014,10,25,13,49,5.90
2014,10,25,13,50,5.90
2014,10,25,13,51,5.90
2014,10,25,13,52,5.90
2014,10,25,13,53,5.90
2014,10,25,13,54,5.90
2014,10,25,13,55,5.90
2014,10,25,13,56,5.90
2014,10,25,13,57,5.90
2014,10,25,13,58,5.90
2014,10,25,13,59,5.90
2014,10,25,14,00,5.90
2014,10,25,14,01,5.90
2014,10,25,14,02,5.90
2014,10,25,14,03,5.90
2014,10,25,14,04,5.90
2014,10,25,14,05,5.90
2014,10,25,14,06,5.90
2014,10,25,14,07,5.90
2014,10,25,14,08,5.90
2014,10,25,14,09,5.90
2014,10,25,14,10,5.90
2014,10,25,14,11,5.90
2014,10,25,14,12,5.90
2014,10,25,14,13,5.90
2014,10,25,14,14,5.90
2014,10,25,14,15,5.90
2014,10,25,14,16,5.90
2014,10,25,14,17,5.90
2014,10,25,14,18,5.90
2014,10,25,14,19,5.90
2014,10,25,14,20,5.90
2014,10,25,14,21,5.90
2014,10,25,14,22,5.90
2014,10,25,14,23,5.90
2014,10,25,14,24,5.90
2014,10,25,14,25,5.90
2014,10,25,14,26,5.90
2014,10,25,14,27,5.90
2014,10,25,14,28,5.90
2014,10,25,14,29,5.90
2014,10,25,14,30,5.90
2014,10,25,14,31,5.90
2014,10,25,14,32,5.90
2014,10,25,14,33,5.90
2014,10,25,14,34,5.90
2014,10,25,14,35,5.90
2014,10,25,14,36,5.90
2014,10,25,14,37,5.90
2014,10,25,14,38,5.90
2014,10,25,14,39,5.90
2014,10,25,14,40,5.90
2014,10,25,14,41,5.90
2014,10,25,14,42,5.90
2014,10,25,14,43,6.00
2014,10,25,14,44,6.00
2014,10,25,14,45,6.00
2014,10,25,14,46,6.00
2014,10,25,14,47,6.00
2014,10,25,14,48,6.00
2014,10,25,14,49,5.90
2014,10,25,14,50,5.90
2014,10,25,14,51,6.00
2014,10,25,14,52,6.00
2014,10,25,14,53,6.00
2014,10,25,14,54,6.00
2014,10,25,14,55,6.00
2014,10,25,14,56,6.00
2014,10,25,14,57,6.00
2014,10,25,14,58,6.00
2014,10,25,14,59,6.00
2014,10,25,15,00,6.00
2014,10,25,15,01,5.90
2014,10,25,15,02,5.90
2014,10,25,15,03,5.90
2014,10,25,15,04,5.90
2014,10,25,15,05,5.90
2014,10,25,15,06,5.90
2014,10,25,15,07,5.90
2014,10,25,15,08,5.90
2014,10,25,15,09,5.90
2014,10,25,15,10,5.90
2014,10,25,15,11,5.90
2014,10,25,15,12,6.00
2014,10,25,15,13,6.00
2014,10,25,15,14,6.10
2014,10,25,15,15,6.10
2014,10,25,15,16,6.10
2014,10,25,15,17,6.10
2014,10,25,15,18,6.20
2014,10,25,15,19,6.20
2014,10,25,15,20,6.20
2014,10,25,15,21,6.20
2014,10,25,15,22,6.20
2014,10,25,15,23,6.20
2014,10,25,15,24,6.20
2014,10,25,15,25,6.20
2014,10,25,15,26,6.20
2014,10,25,15,27,6.20
2014,10,25,15,28,6.20
2014,10,25,15,29,6.20
2014,10,25,15,30,6.20
2014,10,25,15,31,6.20
2014,10,25,15,32,6.20
2014,10,25,15,33,6.30
2014,10,25,15,34,6.20
2014,10,25,15,35,6.20
2014,10,25,15,36,6.20
2014,10,25,15,37,6.20
2014,10,25,15,38,6.20
2014,10,25,15,39,6.20
2014,10,25,15,40,6.20
2014,10,25,15,41,6.30
2014,10,25,15,42,6.30
2014,10,25,15,43,6.30
2014,10,25,15,44,6.30
2014,10,25,15,45,6.30
2014,10,25,15,46,6.30
2014,10,25,15,47,6.20
2014,10,25,15,48,6.20
2014,10,25,15,49,6.20
2014,10,25,15,50,6.20
2014,10,25,15,51,6.30
2014,10,25,15,52,6.30
2014,10,25,15,53,6.30
2014,10,25,15,54,6.30
2014,10,25,15,55,6.30
2014,10,25,15,56,6.30
2014,10,25,15,57,6.30
2014,10,25,15,58,6.20
2014,10,25,15,59,6.20
2014,10,25,16,00,6.20
2014,10,25,16,01,6.10
2014,10,25,16,02,6.10
2014,10,25,16,03,6.20
2014,10,25,16,04,6.20
2014,10,25,16,05,6.20
2014,10,25,16,06,6.20
2014,10,25,16,07,6.30
2014,10,25,16,08,6.30
2014,10,25,16,09,6.30
2014,10,25,16,10,6.40
2014,10,25,16,11,6.40
2014,10,25,16,12,6.40
2014,10,25,16,13,6.40
2014,10,25,16,14,6.40
2014,10,25,16,15,6.30
2014,10,25,16,16,6.30
2014,10,25,16,17,6.30
2014,10,25,16,18,6.30
2014,10,25,16,19,6.30
2014,10,25,16,20,6.40
2014,10,25,16,21,6.40
2014,10,25,16,22,6.40
2014,10,25,16,23,6.40
2014,10,25,16,24,6.40
2014,10,25,16,25,6.40
2014,10,25,16,26,6.40
2014,10,25,16,27,6.40
2014,10,25,16,28,6.30
2014,10,25,16,29,6.30
2014,10,25,16,30,6.30
2014,10,25,16,31,6.30
2014,10,25,16,32,6.30
2014,10,25,16,33,6.30
2014,10,25,16,34,6.20
2014,10,25,16,35,6.30
2014,10,25,16,36,6.30
2014,10,25,16,37,6.30
2014,10,25,16,38,6.30
2014,10,25,16,39,6.30
2014,10,25,16,40,6.30
2014,10,25,16,41,6.30
2014,10,25,16,42,6.30
2014,10,25,16,43,6.30
2014,10,25,16,44,6.30
2014,10,25,16,45,6.30
2014,10,25,16,46,6.30
2014,10,25,16,47,6.30
2014,10,25,16,48,6.30
2014,10,25,16,49,6.30
2014,10,25,16,50,6.30
2014,10,25,16,51,6.30
2014,10,25,16,52,6.30
2014,10,25,16,53,6.30
2014,10,25,16,54,6.20
2014,10,25,16,55,6.20
2014,10,25,16,56,6.20
2014,10,25,16,57,6.20
2014,10,25,16,58,6.20
2014,10,25,16,59,6.20
2014,10,25,17,00,6.10
2014,10,25,17,01,6.10
2014,10,25,17,02,6.10
2014,10,25,17,03,6.10
2014,10,25,17,04,6.00
2014,10,25,17,05,6.00
2014,10,25,17,06,6.00
2014,10,25,17,07,6.00
2014,10,25,17,08,6.00
2014,10,25,17,09,6.00
2014,10,25,17,10,6.00
2014,10,25,17,11,6.00
2014,10,25,17,12,6.00
2014,10,25,17,13,6.00
2014,10,25,17,14,6.00
2014,10,25,17,15,6.00
2014,10,25,17,16,6.00
2014,10,25,17,17,6.00
2014,10,25,17,18,6.00
2014,10,25,17,19,5.90
2014,10,25,17,20,5.90
2014,10,25,17,21,5.90
2014,10,25,17,22,5.90
2014,10,25,17,23,5.90
2014,10,25,17,24,5.90
2014,10,25,17,25,5.90
2014,10,25,17,26,5.90
2014,10,25,17,27,5.90
2014,10,25,17,28,5.90
2014,10,25,17,29,5.90
2014,10,25,17,30,5.90
2014,10,25,17,31,5.90
2014,10,25,17,32,5.90
2014,10,25,17,33,5.90
2014,10,25,17,34,6.00
2014,10,25,17,35,6.00
2014,10,25,17,36,6.00
2014,10,25,17,37,5.90
2014,10,25,17,38,5.90
2014,10,25,17,39,5.90
2014,10,25,17,40,5.90
2014,10,25,17,41,5.90
2014,10,25,17,42,5.90
2014,10,25,17,43,5.90
2014,10,25,17,44,5.90
2014,10,25,17,45,5.90
2014,10,25,17,46,5.90
2014,10,25,17,47,6.00
2014,10,25,17,48,6.00
2014,10,25,17,49,6.00
2014,10,25,17,50,6.00
2014,10,25,17,51,6.00
2014,10,25,17,52,6.00
2014,10,25,17,53,6.00
2014,10,25,17,54,6.10
2014,10,25,17,55,6.10
2014,10,25,17,56,6.10
2014,10,25,17,57,6.10
2014,10,25,17,58,6.10
2014,10,25,17,59,6.10
2014,10,25,18,00,6.10